STARLINK-34133 (64143 NORAD) Tracking and Keplerian Element Data

This shows tracking and keplerian element data for the satellite.

Feedback or suggestion? Click here.




ElementValue
Catalog64143
NameSTARLINK-34133
Epoch Orbit3324
Epoch Day353.76810489
Epoch Year2025
RAAN168.9403
Inclination42.9981
Eccentricity0.0001328
Argument of Perigee269.7034
Mean Anonmoly90.3665
Mean Motion15.2756429
Decay Rate0.00025415
L11 64143U 25111W 25353.76810489 .00025415 00000+0 93035-3 0 9998
L22 64143 42.9981 168.9403 0001328 269.7034 90.3665 15.27564290 33241



Live tracking and technical data element details for STARLINK-34133 (NORAD 64143). STARLINK-34133 can be tracked NOW for your location showing map with azimuth and elevation plus other details from your city location.







IsCatalogInMostPopularTable: catalog: 64143, numindb: 3
Update: records affected: 1



GetName: 64143 STARLINK-34133

Hit Count: updated at: Sat, 07 Feb 2026 07:16:46 GMT